GW6391 Weather Reports


time (UTC)temp
C
wind
direction
speed
KPH
gust
KPH
rain 1hr
cm
rain 24hr
cm
rain mn
cm
humidity
%
barometer
mb
20260504050517 12 352 14.5 22.5 0.00 0.00 0.00 36 1011.7
20260504045510 12 344 17.7 25.7 0.00 0.00 0.00 35 1011.4
20260504045016 12 9 17.7 30.6 0.00 0.00 0.00 36 1011.3
20260504044533 12 350 19.3 30.6 0.00 0.00 0.00 35 1011.2
20260504044011 12 351 20.9 32.2 0.00 0.00 0.00 35 1011.2
20260504043510 12 9 24.1 32.2 0.00 0.00 0.00 35 1011.0
20260504043035 12 16 19.3 35.4 0.00 0.00 0.00 35 1010.9
20260504042512 12 350 24.1 35.4 0.00 0.00 0.00 35 1010.8
20260504042010 13 19 25.7 37.0 0.00 0.00 0.00 35 1010.6
20260504041540 13 11 27.4 40.2 0.00 0.00 0.00 34 1010.6
20260504041007 13 360 27.4 46.7 0.00 0.00 0.00 34 1010.1
20260504040513 13 9 32.2 46.7 0.00 0.00 0.00 34 1009.8
20260504040100 13 15 32.2 43.5 0.00 0.00 0.00 34 1009.8
20260504035515 14 9 29.0 35.4 0.00 0.00 0.00 35 1009.6
20260504035013 14 352 12.9 19.3 0.00 0.00 0.00 37 1009.4
20260504034535 14 360 8.0 14.5 0.00 0.00 0.00 37 1009.1
20260504034010 14 340 8.0 16.1 0.00 0.00 0.00 36 1008.9
20260504033513 15 348 12.9 19.3 0.00 0.00 0.00 36 1008.8
20260504033036 15 338 14.5 19.3 0.00 0.00 0.00 35 1008.8
20260504032504 15 348 12.9 20.9 0.00 0.00 0.00 35 1008.7
20260504032013 15 352 14.5 20.9 0.00 0.00 0.00 34 1008.7
20260504031536 15 343 14.5 20.9 0.00 0.00 0.00 34 1008.6
20260504031010 15 342 14.5 20.9 0.00 0.00 0.00 34 1008.6
20260504030513 15 342 14.5 24.1 0.00 0.00 0.00 34 1008.7
20260504030038 15 351 12.9 24.1 0.00 0.00 0.00 33 1008.5
20260504025511 16 360 14.5 20.9 0.00 0.00 0.00 33 1008.5
20260504025010 16 346 14.5 20.9 0.00 0.00 0.00 32 1008.5
20260504024526 16 345 14.5 22.5 0.00 0.00 0.00 32 1008.3
20260504024014 16 336 16.1 22.5 0.00 0.00 0.00 32 1008.2
20260504023506 16 336 14.5 24.1 0.00 0.00 0.00 31 1008.2
20260504023057 17 346 16.1 24.1 0.00 0.00 0.00 30 1008.5
20260504022511 17 352 16.1 24.1 0.00 0.00 0.00 30 1008.3
20260504022011 17 336 19.3 27.4 0.00 0.00 0.00 30 1008.2
20260504021539 18 348 19.3 27.4 0.00 0.00 0.00 29 1008.2
20260504021013 18 338 19.3 27.4 0.00 0.00 0.00 28 1008.1
20260504020512 18 360 17.7 25.7 0.00 0.00 0.00 26 1008.0
20260504020032 18 352 17.7 30.6 0.00 0.00 0.00 26 1008.0
20260504015510 19 334 22.5 32.2 0.00 0.00 0.00 25 1008.1
20260504015013 19 338 22.5 33.8 0.00 0.00 0.00 25 1008.0
20260504014532 20 340 24.1 33.8 0.00 0.00 0.00 24 1007.9
20260504014012 20 334 24.1 32.2 0.00 0.00 0.00 24 1007.8
20260504013512 21 331 22.5 32.2 0.00 0.00 0.00 21 1008.0
20260504013039 21 320 19.3 32.2 0.00 0.00 0.00 21 1007.8
20260504012514 22 328 22.5 32.2 0.00 0.00 0.00 21 1007.8
20260504012013 22 346 20.9 33.8 0.00 0.00 0.00 21 1007.7
20260504011541 22 342 25.7 33.8 0.00 0.00 0.00 20 1007.7
20260504011010 22 321 22.5 33.8 0.00 0.00 0.00 21 1007.7
20260504010511 22 315 25.7 33.8 0.00 0.00 0.00 21 1007.8
20260504010035 22 310 22.5 32.2 0.00 0.00 0.00 21 1007.7
20260504005511 22 321 19.3 30.6 0.00 0.00 0.00 20 1007.9
20260504005013 22 296 20.9 35.4 0.00 0.00 0.00 20 1007.8
20260504004515 22 305 24.1 35.4 0.00 0.00 0.00 20 1007.7
20260504004012 23 288 22.5 33.8 0.00 0.00 0.00 20 1007.8
20260504003514 23 302 24.1 38.6 0.00 0.00 0.00 20 1007.9
20260504003055 23 300 27.4 40.2 0.00 0.00 0.00 20 1007.9
20260504002511 23 313 22.5 33.8 0.00 0.00 0.00 20 1008.1
20260504002015 23 292 24.1 38.6 0.00 0.00 0.00 19 1008.1
20260504001539 23 290 27.4 37.0 0.00 0.00 0.00 20 1008.1
20260504001013 23 290 27.4 35.4 0.00 0.00 0.00 20 1008.1
20260504000513 23 292 20.9 38.6 0.00 0.00 0.00 20 1008.3
20260504000035 23 291 24.1 38.6 0.00 0.00 0.00 19 1008.1
20260503235511 23 296 24.1 35.4 0.00 0.00 0.00 20 1008.3
20260503235013 23 293 24.1 46.7 0.00 0.00 0.00 20 1008.4
20260503234535 23 300 30.6 46.7 0.00 0.00 0.00 20 1008.2
20260503234014 23 268 24.1 38.6 0.00 0.00 0.00 19 1008.2
20260503233510 23 302 24.1 37.0 0.00 0.00 0.00 20 1008.3
20260503233040 23 272 25.7 37.0 0.00 0.00 0.00 19 1008.2
20260503232511 23 292 25.7 45.1 0.00 0.00 0.00 19 1008.3
20260503232012 23 271 17.7 46.7 0.00 0.00 0.00 19 1008.2
20260503231533 23 296 22.5 35.4 0.00 0.00 0.00 19 1008.2
20260503231014 23 296 22.5 38.6 0.00 0.00 0.00 19 1008.3
20260503230510 23 315 25.7 38.6 0.00 0.00 0.00 19 1008.3
20260503230035 23 298 27.4 41.8 0.00 0.00 0.00 19 1008.5
20260503225510 24 277 25.7 41.8 0.00 0.00 0.00 19 1008.2
20260503225014 23 296 20.9 40.2 0.00 0.00 0.00 19 1008.6
20260503224533 23 293 24.1 43.5 0.00 0.00 0.00 19 1008.6
20260503224013 23 283 20.9 43.5 0.00 0.00 0.00 19 1008.7
20260503223509 23 296 24.1 33.8 0.00 0.00 0.00 19 1008.7
20260503223034 24 288 25.7 41.8 0.00 0.00 0.00 19 1008.7
20260503222513 23 281 29.0 41.8 0.00 0.00 0.00 18 1008.9
20260503222012 23 301 20.9 41.8 0.00 0.00 0.00 19 1008.8
20260503221539 23 280 24.1 38.6 0.00 0.00 0.00 18 1008.9
20260503221012 23 280 27.4 41.8 0.00 0.00 0.00 18 1008.8
20260503220519 24 284 25.7 41.8 0.00 0.00 0.00 18 1009.0
20260503220035 23 276 24.1 40.2 0.00 0.00 0.00 18 1009.1
20260503215512 23 310 19.3 38.6 0.00 0.00 0.00 19 1009.1
20260503215013 23 281 24.1 38.6 0.00 0.00 0.00 19 1009.1
20260503214535 23 292 22.5 38.6 0.00 0.00 0.00 19 1009.2
20260503214016 23 257 24.1 38.6 0.00 0.00 0.00 18 1009.4
20260503213511 23 305 19.3 33.8 0.00 0.00 0.00 19 1009.5
20260503213035 24 252 22.5 33.8 0.00 0.00 0.00 18 1009.5
20260503212516 23 284 17.7 37.0 0.00 0.00 0.00 19 1009.6
20260503212011 23 288 25.7 37.0 0.00 0.00 0.00 18 1009.5
20260503211531 23 298 24.1 37.0 0.00 0.00 0.00 18 1009.6
20260503211020 23 264 22.5 38.6 0.00 0.00 0.00 19 1009.7
20260503210510 23 287 25.7 37.0 0.00 0.00 0.00 19 1009.9
20260503210034 23 269 25.7 40.2 0.00 0.00 0.00 18 1009.9
20260503205512 23 296 29.0 40.2 0.00 0.00 0.00 18 1009.8
20260503205011 23 271 14.5 40.2 0.00 0.00 0.00 18 1010.0
20260503204534 23 271 25.7 40.2 0.00 0.00 0.00 18 1010.0
20260503204016 23 284 22.5 40.2 0.00 0.00 0.00 18 1010.2
20260503203516 23 297 27.4 40.2 0.00 0.00 0.00 18 1010.1
20260503203035 23 274 22.5 35.4 0.00 0.00 0.00 18 1010.1
20260503202513 23 275 22.5 33.8 0.00 0.00 0.00 18 1010.0
20260503202012 23 269 16.1 38.6 0.00 0.00 0.00 19 1010.2
20260503201535 23 276 20.9 38.6 0.00 0.00 0.00 19 1010.3
20260503201008 23 290 20.9 33.8 0.00 0.00 0.00 19 1010.2
20260503200513 23 263 16.1 40.2 0.00 0.00 0.00 19 1010.6
20260503200035 23 298 24.1 40.2 0.00 0.00 0.00 19 1010.7
20260503195513 23 280 22.5 38.6 0.00 0.00 0.00 18 1010.8
20260503195013 23 268 29.0 38.6 0.00 0.00 0.00 18 1010.6
20260503194535 23 269 22.5 33.8 0.00 0.00 0.00 19 1010.9
20260503194011 22 281 20.9 38.6 0.00 0.00 0.00 19 1010.9
20260503193517 22 267 24.1 38.6 0.00 0.00 0.00 19 1010.8
20260503193040 22 301 12.9 33.8 0.00 0.00 0.00 20 1010.9
20260503192513 23 275 22.5 33.8 0.00 0.00 0.00 19 1011.1
20260503192011 23 246 19.3 35.4 0.00 0.00 0.00 19 1011.1
20260503191533 22 268 25.7 38.6 0.00 0.00 0.00 19 1010.9
20260503191014 22 245 27.4 38.6 0.00 0.00 0.00 19 1011.1
20260503190513 22 278 20.9 32.2 0.00 0.00 0.00 18 1011.2
20260503190042 22 319 24.1 32.2 0.00 0.00 0.00 19 1011.2
20260503185506 22 290 12.9 32.2 0.00 0.00 0.00 18 1011.3
20260503185017 22 267 20.9 35.4 0.00 0.00 0.00 19 1011.3
20260503184534 22 250 24.1 35.4 0.00 0.00 0.00 18 1011.2
20260503184014 22 280 27.4 35.4 0.00 0.00 0.00 17 1011.3
20260503183512 22 244 24.1 33.8 0.00 0.00 0.00 19 1011.3
20260503183045 22 284 17.7 33.8 0.00 0.00 0.00 18 1011.4
20260503182512 22 290 24.1 33.8 0.00 0.00 0.00 18 1011.6
20260503182013 22 308 25.7 33.8 0.00 0.00 0.00 18 1011.6
20260503181520 22 284 20.9 35.4 0.00 0.00 0.00 18 1011.6
20260503181010 22 267 17.7 32.2 0.00 0.00 0.00 18 1011.8
20260503180514 22 277 22.5 35.4 0.00 0.00 0.00 19 1011.9
20260503180041 22 290 17.7 35.4 0.00 0.00 0.00 19 1011.9
20260503175511 22 274 20.9 35.4 0.00 0.00 0.00 18 1012.0
20260503175010 22 313 22.5 32.2 0.00 0.00 0.00 20 1012.0
20260503174541 22 309 20.9 32.2 0.00 0.00 0.00 20 1012.1
20260503174011 22 289 24.1 35.4 0.00 0.00 0.00 20 1012.2
20260503173514 22 308 22.5 29.0 0.00 0.00 0.00 20 1012.3
20260503173036 21 277 17.7 27.4 0.00 0.00 0.00 21 1012.4
20260503172511 21 277 19.3 27.4 0.00 0.00 0.00 21 1012.5
20260503172013 21 279 14.5 25.7 0.00 0.00 0.00 21 1012.5
20260503171525 21 270 16.1 27.4 0.00 0.00 0.00 22 1012.4
20260503171014 21 267 19.3 25.7 0.00 0.00 0.00 21 1012.5
20260503170514 21 257 14.5 22.5 0.00 0.00 0.00 22 1012.4
20260503150514 16 284 14.5 20.9 0.00 0.00 0.00 40 1013.4
20260503131014 6 136 3.2 8.0 0.00 0.00 0.00 79 1013.5
20260503130518 6 126 4.8 9.7 0.00 0.00 0.00 78 1013.6
20260503110519 3 134 8.0 11.3 0.00 0.00 0.00 78 1014.7
20260503090512 3 229 0.0 3.2 0.00 0.00 0.00 77 1015.3
20260503081530 6 233 6.4 9.7 0.00 0.00 0.00 70 1015.7
20260503081011 6 260 8.0 11.3 0.00 0.00 0.00 70 1015.8
20260503080511 6 251 6.4 12.9 0.00 0.00 0.00 69 1015.8
20260503072512 6 269 3.2 6.4 0.00 0.00 0.00 62 1016.0
20260503072011 6 246 3.2 4.8 0.00 0.00 0.00 65 1016.0
20260503071534 6 246 1.6 8.0 0.00 0.00 0.00 64 1016.1
20260503071018 5 246 6.4 8.0 0.00 0.00 0.00 66 1016.1
20260503070512 5 246 4.8 6.4 0.00 0.00 0.00 66 1016.2